Location: Moneta
(37.1826°N, 79.6196°W)
Time: 04:18:04
(UTC+00:00)

N. Korean satellite - Visible Passes

Search period start: 03 February 2023 00:00
Search period end: 13 February 2023 00:00
Orbit: 407 x 443 km, 97.3° (Epoch: 02 February)

Date Brightness Start Highest point End Pass type
(mag) Time Alt. Az. Time Alt. Az. Time Alt. Az.
03 Feb 8.5 10:07:27 10° NE 10:10:14 26° E 10:13:02 10° SSE visible
03 Feb 8.2 11:40:46 10° NW 11:42:13 13° WNW 11:43:41 10° W visible
04 Feb 6.4 10:56:40 10° N 10:59:49 48° WNW 11:02:58 10° SSW visible
05 Feb 8.1 10:14:08 10° NNE 10:17:07 33° E 10:20:06 10° SSE visible
05 Feb 8.4 11:48:31 10° WNW 11:49:00 10° WNW 11:49:30 10° WNW visible
06 Feb 6.7 11:03:27 10° N 11:06:30 38° WNW 11:09:35 10° SW visible
07 Feb 7.6 10:20:35 10° NNE 10:23:43 41° E 10:26:50 10° S visible
08 Feb 9.9 09:40:05 10° E 09:40:37 10° E 09:41:10 10° ESE visible
08 Feb 7.0 11:10:01 10° N 11:12:57 31° WNW 11:15:53 10° SW visible
09 Feb 7.1 10:26:51 10° NNE 10:30:04 52° E 10:33:17 10° S visible
10 Feb 9.7 09:45:21 10° ENE 09:46:53 13° E 09:48:24 10° ESE visible
10 Feb 7.3 11:16:20 10° NNW 11:19:07 26° WNW 11:21:54 10° SW visible
11 Feb 6.6 10:32:53 10° NNE 10:36:09 66° E 10:39:25 10° S visible
12 Feb 9.5 09:50:52 10° ENE 09:52:53 15° E 09:54:53 10° SE visible
12 Feb 7.6 11:22:28 10° NNW 11:25:02 22° WNW 11:27:38 10° SW visible
